{"data":{"norad_id":58088,"epoch":"2026-05-24T23:00:02.595168Z","epoch_age_seconds":79405,"freshness":"FRESH","line1":"1 58088U 23160P   26144.95836337 -.00002738  00000+0 -90059-4 0  9990","line2":"2 58088  43.0017   6.8605 0001069 305.6218  54.4534 15.27559233144615","mean_motion":15.27559233,"eccentricity":0.0001069,"inclination_deg":43.0017,"raan_deg":6.8605,"arg_perigee_deg":305.6218,"mean_anomaly_deg":54.4534,"bstar":-9.0059e-5,"rev_number":14461,"period_min":94.268030259747,"perigee_km":482.37781317183,"apogee_km":483.84474805422,"semimajor_km":6861.248280613,"source":"CELESTRAK","updated_at":"2026-05-25T13:38:18.523791Z"}}